Regional Weather Roundup
Issued by NWS Northern Indiana

Home | Current Version | Previous Version | Text Only | Print | Product List | Glossary Off
Versions: 1 2 3 4 5 6 7 8 9 10 11 12 13 14 15 16 17 18 19 20 21 22 23 24 25 26 27 28 29 30 31 32 33 34 35 36 37 38 39 40 41 42 43 44 45 46 47 48 49 50

000
ASUS43 KIWX 250200
RWRIWX

KIWX WEATHER ROUNDUP
NATIONAL WEATHER SERVICE NORTHERN INDIANA
1000 PM EDT WED AUG 24 2016

NOTE: "FAIR" INDICATES FEW OR NO CLOUDS BELOW 12,000 FEET WITH NO
SIGNIFICANT WEATHER AND/OR OBSTRUCTIONS TO VISIBILITY.

* THESE STATIONS ARE NOT UNDER NWS QUALITY CONTROL. THEY ALSO MAY NOT
  REPORT WEATHER SUCH AS PRECIPITATION OR FOG.

INZ001>027-250300-
NORTHERN INDIANA

CITY           SKY/WX    TMP DP  RH WIND       PRES   REMARKS
GARY*          PTCLDY    79  73  83 CALM      29.98R
KNOX*          CLEAR     72  55  56 SW3       29.99R
SOUTH BEND     CLEAR     74  71  91 SW8       29.99R
GOSHEN         CLEAR     73  69  87 S7        29.99R
MONTICELLO*    CLEAR     74  66  75 W3        30.00S
ANGOLA*        PTCLDY    73  66  78 W6        29.99S
FORT WAYNE     PTCLDY    73  71  93 W3        30.00R
PERU/GRISSOM   CLEAR     73  73  99 W6        30.00S

$$
INZ028>050-250300-
CENTRAL INDIANA

CITY           SKY/WX    TMP DP  RH WIND       PRES   REMARKS
LAFAYETTE      CLEAR     73  72  96 CALM      30.01R
MUNCIE*        LGT RAIN  79  73  82 SW14G21   30.01R
INDIANAPOLIS   MOCLDY    78  74  87 SW9       30.03S

$$
MIZ043>046-050>051-056>058-064>065-071>073-077>080-250300-
SOUTHWEST LOWER MICHIGAN

CITY           SKY/WX    TMP DP  RH WIND       PRES   REMARKS
BATTLE CREEK   MOCLDY    72  72 100 S6        29.98R
BENTON HARBOR  CLEAR     75  70  84 W3        29.97R
COLDWATER*     CLEAR     72  72  98 CALM      29.98S
HILLSDALE*     CLOUDY    73  71  94 CALM      29.98F
HOLLAND        CLEAR     73  70  90 SW3       29.96R
GRAND RAPIDS   CLEAR     74  70  87 SW5       29.96R
KALAMAZOO      CLEAR     74  70  87 SW3       29.97R
STURGIS*       PTCLDY    72  69  91 SW3       29.98R
THREE RIVERS*  FAIR      74  73  95 S3        29.98R

$$
OHZ001>008-015>018-024>025-250300-
NORTHWEST OHIO

CITY           SKY/WX    TMP DP  RH WIND       PRES   REMARKS
DEFIANCE       CLOUDY    74  70  87 SW5       29.98S
FINDLAY        RAIN      77  72  84 SW10      29.99S
TOLEDO EXPRESS LGT RAIN  74  74 100 SW10      29.97F
TOLEDO METCALF LGT RAIN  77  75  93 S8        29.97F
LIMA           HVY RAIN  76  75  97 W10       30.02R FOG

$$
AND FOR LAKE MICHIGAN COASTAL AND OPEN LAKE BUOY OBSERVATIONS

STATION/POSITION TEMP    WIND        PRES    VSBY  WAVE
                 AIR SEA DIR/SP/G                  HT/PER
                 (F)     (DEG/KT/KT) (MB)    (MI)  (FT/S)
CALUMET HARBOR    81     210/  5/ 10 1014.2R
MICHIGAN CITY     78     180/  8/  9   N/A
BURNS HARBOR      79     210/  7/ 10 1015.2R
SAINT JOSEPH      76     220/  8/  9 1014.9R
SOUTH LAKE BUOY   75 75  180/  8/ 10 1012.8          2/ 5
4 MI NW BRIDGMAN  76 75  230/  8/ 10 1014.1R         1/ 3
MICHIGAN CITY     76 73  230/  8/ 10   N/A           1/ 3

$$
&&




USA.gov is the U.S. government's official web portal to all federal, state and local government web resources and services.